HI1045 MMCZ-MKJP

Flight info

Callsign HI1045
Flight time N/A
Altitude 37000
Route AVSEB2B AVSEB UL577 MAMBI UR640 GCM UG633 KEMBO KEYNO3
Aircraft C25C/M-SDE2E3FGHRWXY/LB1

Departure

Time 2026-05-08 01:14
Airport Cozumel International Airport (MMCZ)

Arrival

Time N/A
Airport Norman Manley International Airport (MKJP)
Time Latitude Longitude Altitude Speed Heading
2026-05-08 00:50 20.51237 -86.93034 15 ft 0 kts 56°
2026-05-08 01:07 20.51252 -86.93008 15 ft 7 kts 44°
2026-05-08 01:08 20.51271 -86.92996 15 ft 0 kts 20°
2026-05-08 01:08 20.51296 -86.93038 15 ft 9 kts 291°
2026-05-08 01:08 20.51312 -86.93054 15 ft 0 kts 343°
2026-05-08 01:08 20.51327 -86.93050 15 ft 0 kts 23°
2026-05-08 01:09 20.51331 -86.93048 15 ft 4 kts 24°
2026-05-08 01:09 20.51352 -86.93038 15 ft 6 kts 19°
2026-05-08 01:09 20.51367 -86.93033 15 ft 8 kts 14°
2026-05-08 01:10 20.51433 -86.93055 15 ft 13 kts 320°
2026-05-08 01:10 20.51516 -86.93117 15 ft 15 kts 326°
2026-05-08 01:10 20.51604 -86.93182 15 ft 16 kts 324°
2026-05-08 01:10 20.51685 -86.93267 14 ft 15 kts 297°
2026-05-08 01:11 20.51722 -86.93361 15 ft 13 kts 296°
2026-05-08 01:11 20.51765 -86.93453 14 ft 15 kts 296°
2026-05-08 01:11 20.51810 -86.93554 14 ft 21 kts 295°
2026-05-08 01:12 20.51885 -86.93718 15 ft 29 kts 295°
2026-05-08 01:12 20.51958 -86.93884 14 ft 18 kts 279°
2026-05-08 01:12 20.51950 -86.93998 14 ft 15 kts 320°
2026-05-08 01:12 20.51988 -86.93966 14 ft 6 kts 112°
2026-05-08 01:13 20.51972 -86.93909 14 ft 0 kts 114°
2026-05-08 01:14 20.51812 -86.93566 14 ft 102 kts 116°
2026-05-08 01:14 20.51375 -86.92684 560 ft 152 kts 118°
2026-05-08 01:14 20.50801 -86.91586 1256 ft 196 kts 121°
2026-05-08 01:14 20.50069 -86.90265 2068 ft 221 kts 121°
2026-05-08 01:15 20.49319 -86.88776 3111 ft 229 kts 114°
2026-05-08 01:15 20.48863 -86.87088 4287 ft 239 kts 105°
2026-05-08 01:15 20.48346 -86.85380 5407 ft 245 kts 112°
2026-05-08 01:15 20.47661 -86.83725 6540 ft 247 kts 116°
2026-05-08 01:16 20.46920 -86.82076 7687 ft 246 kts 115°
2026-05-08 01:16 20.46480 -86.80306 8811 ft 247 kts 98°
2026-05-08 01:16 20.46201 -86.78492 9843 ft 250 kts 100°
2026-05-08 01:16 20.45890 -86.76670 10736 ft 254 kts 99°
2026-05-08 01:17 20.45589 -86.74805 11635 ft 257 kts 99°
2026-05-08 01:17 20.45284 -86.72913 12536 ft 260 kts 99°
2026-05-08 01:17 20.44975 -86.70998 13420 ft 264 kts 99°
2026-05-08 01:17 20.44659 -86.69057 14210 ft 267 kts 99°
2026-05-08 01:18 20.44339 -86.67089 14965 ft 270 kts 99°
2026-05-08 01:18 20.44016 -86.65100 15687 ft 274 kts 99°
2026-05-08 01:18 20.43687 -86.63084 16424 ft 278 kts 100°
2026-05-08 01:18 20.43354 -86.61041 17166 ft 281 kts 100°
2026-05-08 01:19 20.43017 -86.58978 17900 ft 285 kts 100°
2026-05-08 01:19 20.42676 -86.56881 18576 ft 288 kts 100°
2026-05-08 01:19 20.42329 -86.54758 19186 ft 293 kts 101°
2026-05-08 01:19 20.41981 -86.52630 19783 ft 297 kts 101°
2026-05-08 01:20 20.41623 -86.50445 20397 ft 301 kts 102°
2026-05-08 01:20 20.41260 -86.48228 20984 ft 306 kts 102°
2026-05-08 01:20 20.40891 -86.45972 21584 ft 311 kts 102°
2026-05-08 01:20 20.40516 -86.43691 22159 ft 316 kts 103°
2026-05-08 01:21 20.40259 -86.42124 22569 ft 319 kts 103°
2026-05-08 01:21 20.39750 -86.39017 23352 ft 325 kts 103°
2026-05-08 01:21 20.39485 -86.37405 23711 ft 328 kts 103°
2026-05-08 01:21 20.39088 -86.34998 24208 ft 331 kts 103°
2026-05-08 01:22 20.38558 -86.31773 24885 ft 336 kts 102°
2026-05-08 01:22 20.38152 -86.29312 25384 ft 340 kts 102°
2026-05-08 01:22 20.37873 -86.27618 25719 ft 343 kts 102°
2026-05-08 01:22 20.37457 -86.25097 26211 ft 347 kts 102°
2026-05-08 01:23 20.37033 -86.22564 26696 ft 351 kts 103°
2026-05-08 01:23 20.36465 -86.20005 27175 ft 355 kts 104°
2026-05-08 01:23 20.35979 -86.17411 27651 ft 359 kts 102°
2026-05-08 01:23 20.35491 -86.14787 28145 ft 362 kts 103°
2026-05-08 01:24 20.34948 -86.12166 28721 ft 363 kts 104°
2026-05-08 01:24 20.34403 -86.09570 29296 ft 363 kts 104°
2026-05-08 01:24 20.33872 -86.06935 29890 ft 364 kts 103°
2026-05-08 01:24 20.33338 -86.04266 30430 ft 364 kts 103°
2026-05-08 01:25 20.32803 -86.01628 30942 ft 364 kts 103°
2026-05-08 01:25 20.32265 -85.98999 31456 ft 364 kts 103°
2026-05-08 01:25 20.31735 -85.96393 31957 ft 364 kts 102°
2026-05-08 01:25 20.31199 -85.93757 32484 ft 364 kts 102°
2026-05-08 01:26 20.30656 -85.91087 33003 ft 364 kts 102°
2026-05-08 01:26 20.30118 -85.88454 33524 ft 363 kts 102°
2026-05-08 01:26 20.29586 -85.85853 34006 ft 364 kts 102°
2026-05-08 01:26 20.29050 -85.83220 34453 ft 363 kts 102°
2026-05-08 01:27 20.28513 -85.80595 34938 ft 362 kts 101°
2026-05-08 01:27 20.27977 -85.77980 35449 ft 360 kts 101°
2026-05-08 01:27 20.27447 -85.75384 35949 ft 358 kts 101°
2026-05-08 01:27 20.26916 -85.72800 36438 ft 357 kts 101°
2026-05-08 01:28 20.26387 -85.70216 36897 ft 357 kts 101°
2026-05-08 01:28 20.25851 -85.67599 37011 ft 367 kts 101°
2026-05-08 01:28 20.25297 -85.64902 37029 ft 379 kts 101°
2026-05-08 01:28 20.24723 -85.62110 37037 ft 391 kts 101°
2026-05-08 01:29 20.24134 -85.59242 37040 ft 402 kts 101°
2026-05-08 01:29 20.22909 -85.53301 37041 ft 417 kts 101°
2026-05-08 01:30 20.21651 -85.47210 37043 ft 425 kts 101°
2026-05-08 01:30 20.20377 -85.41049 37037 ft 431 kts 101°
2026-05-08 01:31 20.19069 -85.34728 37044 ft 436 kts 101°
2026-05-08 01:31 20.17730 -85.28448 37043 ft 440 kts 102°
2026-05-08 01:32 20.16355 -85.22075 37048 ft 443 kts 101°
2026-05-08 01:32 20.14978 -85.15650 37045 ft 445 kts 101°
2026-05-08 01:33 20.13587 -85.09214 37041 ft 447 kts 101°
2026-05-08 01:33 20.12192 -85.02746 37046 ft 448 kts 102°
2026-05-08 01:34 20.10791 -84.96280 37045 ft 449 kts 101°
2026-05-08 01:34 20.09411 -84.89906 37045 ft 450 kts 101°
2026-05-08 01:35 20.08001 -84.83411 37048 ft 450 kts 102°
2026-05-08 01:35 20.06589 -84.76919 37047 ft 451 kts 102°
2026-05-08 01:36 20.05171 -84.70418 37052 ft 451 kts 102°
2026-05-08 01:36 20.03751 -84.63920 37048 ft 451 kts 102°
2026-05-08 01:37 20.02330 -84.57423 37054 ft 451 kts 102°
2026-05-08 01:37 20.00905 -84.50916 37055 ft 451 kts 102°
2026-05-08 01:38 19.99477 -84.44411 37057 ft 451 kts 102°
2026-05-08 01:38 19.98057 -84.37963 37057 ft 451 kts 102°
2026-05-08 01:38 19.97341 -84.34708 37184 ft 449 kts 102°
2026-05-08 01:39 19.96627 -84.31473 37252 ft 451 kts 102°
2026-05-08 01:39 19.95912 -84.28229 37403 ft 451 kts 102°
2026-05-08 01:39 19.95192 -84.24977 37594 ft 450 kts 102°
2026-05-08 01:39 19.94478 -84.21745 37777 ft 449 kts 102°
2026-05-08 01:40 19.93763 -84.18514 37959 ft 448 kts 102°
2026-05-08 01:40 19.93053 -84.15314 38141 ft 448 kts 102°
2026-05-08 01:40 19.92342 -84.12098 38322 ft 447 kts 102°
2026-05-08 01:40 19.91626 -84.08875 38508 ft 447 kts 102°
2026-05-08 01:41 19.90913 -84.05668 38680 ft 446 kts 102°
2026-05-08 01:41 19.90202 -84.02463 38841 ft 445 kts 102°
2026-05-08 01:41 19.89489 -83.99267 39123 ft 441 kts 102°
2026-05-08 01:41 19.88789 -83.96120 39516 ft 434 kts 102°
2026-05-08 01:42 19.88098 -83.93021 39964 ft 427 kts 102°
2026-05-08 01:42 19.87417 -83.89969 40387 ft 422 kts 102°
2026-05-08 01:42 19.86972 -83.87973 40667 ft 418 kts 102°
2026-05-08 01:42 19.86076 -83.83961 41003 ft 418 kts 102°
2026-05-08 01:43 19.85411 -83.80985 41042 ft 423 kts 102°
2026-05-08 01:43 19.84032 -83.74827 41048 ft 433 kts 102°
2026-05-08 01:44 19.82638 -83.68615 41050 ft 432 kts 102°
2026-05-08 01:44 19.81244 -83.62410 41056 ft 431 kts 102°
2026-05-08 01:45 19.79851 -83.56226 41057 ft 430 kts 102°
2026-05-08 01:45 19.78469 -83.50091 41056 ft 429 kts 102°
2026-05-08 01:46 19.77077 -83.43928 41054 ft 428 kts 102°
2026-05-08 01:46 19.75686 -83.37779 41051 ft 428 kts 102°
2026-05-08 01:47 19.74293 -83.31633 41059 ft 428 kts 102°
2026-05-08 01:47 19.72898 -83.25486 41059 ft 427 kts 102°
2026-05-08 01:48 19.70808 -83.16300 41060 ft 427 kts 102°
2026-05-08 01:48 19.69412 -83.10173 41059 ft 426 kts 102°
2026-05-08 01:49 19.68024 -83.04091 41058 ft 426 kts 102°
2026-05-08 01:49 19.66625 -82.97978 41058 ft 426 kts 102°
2026-05-08 01:50 19.65226 -82.91872 41057 ft 426 kts 102°
2026-05-08 01:50 19.63826 -82.85767 41060 ft 426 kts 102°
2026-05-08 01:51 19.62421 -82.79652 41057 ft 426 kts 102°
2026-05-08 01:51 19.61015 -82.73550 41057 ft 426 kts 102°
2026-05-08 01:52 19.59610 -82.67452 41062 ft 426 kts 102°
2026-05-08 01:52 19.58203 -82.61356 41064 ft 426 kts 102°
2026-05-08 01:53 19.56800 -82.55295 41068 ft 426 kts 102°
2026-05-08 01:53 19.55386 -82.49197 41065 ft 425 kts 102°
2026-05-08 01:54 19.53973 -82.43106 41065 ft 425 kts 102°
2026-05-08 01:54 19.52559 -82.37019 41068 ft 425 kts 102°
2026-05-08 01:55 19.51139 -82.30923 41065 ft 425 kts 102°
2026-05-08 01:55 19.49719 -82.24835 41066 ft 425 kts 102°
2026-05-08 01:56 19.48297 -82.18746 41065 ft 425 kts 102°
2026-05-08 01:56 19.46874 -82.12659 41067 ft 425 kts 102°
2026-05-08 01:57 19.45447 -82.06574 41068 ft 425 kts 102°
2026-05-08 01:57 19.44023 -82.00526 41066 ft 426 kts 102°
2026-05-08 01:58 19.42824 -81.95464 41069 ft 426 kts 102°
2026-05-08 01:58 19.41143 -81.88354 41068 ft 426 kts 102°
2026-05-08 01:59 19.39697 -81.82265 41068 ft 426 kts 102°
2026-05-08 01:59 19.38261 -81.76221 41060 ft 426 kts 102°
2026-05-08 02:00 19.36812 -81.70129 41025 ft 426 kts 102°
2026-05-08 02:00 19.35362 -81.64043 41023 ft 426 kts 102°
2026-05-08 02:01 19.33910 -81.57961 41026 ft 426 kts 102°
2026-05-08 02:01 19.32456 -81.51882 41023 ft 426 kts 102°
2026-05-08 02:02 19.31001 -81.45803 41027 ft 425 kts 102°
2026-05-08 02:02 19.29546 -81.39735 41026 ft 425 kts 102°
2026-05-08 02:03 19.28169 -81.33649 41022 ft 424 kts 101°
2026-05-08 02:03 19.27054 -81.28586 41023 ft 424 kts 101°
2026-05-08 02:04 19.25721 -81.22500 41030 ft 424 kts 101°
2026-05-08 02:04 19.24171 -81.15427 41031 ft 424 kts 101°
2026-05-08 02:05 19.23062 -81.10383 41032 ft 424 kts 101°
2026-05-08 02:05 19.21723 -81.04296 41032 ft 423 kts 101°
2026-05-08 02:06 19.20386 -80.98230 41033 ft 423 kts 101°
2026-05-08 02:06 19.19048 -80.92164 41029 ft 423 kts 101°
2026-05-08 02:07 19.17706 -80.86101 41032 ft 423 kts 101°
2026-05-08 02:07 19.16371 -80.80074 41032 ft 423 kts 101°
2026-05-08 02:08 19.15031 -80.74022 41035 ft 423 kts 101°
2026-05-08 02:08 19.13681 -80.67963 41034 ft 423 kts 101°
2026-05-08 02:09 19.12335 -80.61913 41038 ft 422 kts 101°
2026-05-08 02:09 19.10988 -80.55869 41034 ft 422 kts 101°
2026-05-08 02:10 19.09639 -80.49827 41033 ft 422 kts 101°
2026-05-08 02:10 19.08286 -80.43780 41033 ft 422 kts 101°
2026-05-08 02:11 19.06932 -80.37741 41036 ft 422 kts 101°
2026-05-08 02:11 19.05577 -80.31697 41034 ft 422 kts 101°
2026-05-08 02:12 19.04219 -80.25656 41041 ft 422 kts 101°
2026-05-08 02:12 19.02866 -80.19648 41040 ft 422 kts 101°
2026-05-08 02:13 19.01505 -80.13613 41041 ft 422 kts 101°
2026-05-08 02:13 19.00141 -80.07573 41040 ft 422 kts 101°
2026-05-08 02:14 18.98775 -80.01532 41041 ft 422 kts 101°
2026-05-08 02:14 18.97406 -79.95495 41040 ft 422 kts 101°
2026-05-08 02:15 18.96037 -79.89461 41038 ft 422 kts 101°
2026-05-08 02:15 18.94674 -79.83464 41039 ft 422 kts 101°
2026-05-08 02:16 18.93302 -79.77438 41041 ft 422 kts 101°
2026-05-08 02:16 18.91926 -79.71407 41043 ft 422 kts 101°
2026-05-08 02:17 18.90548 -79.65373 41038 ft 422 kts 101°
2026-05-08 02:17 18.89170 -79.59344 41039 ft 422 kts 101°
2026-05-08 02:18 18.87788 -79.53314 41036 ft 422 kts 102°
2026-05-08 02:18 18.86403 -79.47284 41039 ft 422 kts 102°
2026-05-08 02:19 18.85022 -79.41269 41039 ft 422 kts 102°
2026-05-08 02:19 18.83645 -79.35283 41037 ft 422 kts 102°
2026-05-08 02:20 18.82257 -79.29264 41038 ft 422 kts 102°
2026-05-08 02:20 18.80867 -79.23244 41037 ft 422 kts 102°
2026-05-08 02:21 18.79476 -79.17227 41039 ft 422 kts 102°
2026-05-08 02:21 18.78082 -79.11205 41038 ft 422 kts 102°
2026-05-08 02:22 18.76686 -79.05189 41037 ft 422 kts 102°
2026-05-08 02:22 18.75287 -78.99169 41039 ft 422 kts 102°
2026-05-08 02:23 18.73887 -78.93152 40953 ft 424 kts 102°
2026-05-08 02:23 18.73173 -78.90092 40429 ft 433 kts 102°
2026-05-08 02:23 18.72452 -78.87003 39857 ft 431 kts 102°
2026-05-08 02:24 18.71737 -78.83947 39291 ft 428 kts 102°
2026-05-08 02:24 18.71027 -78.80913 38730 ft 425 kts 102°
2026-05-08 02:24 18.70324 -78.77898 38130 ft 421 kts 102°
2026-05-08 02:24 18.69626 -78.74921 37576 ft 416 kts 102°
2026-05-08 02:25 18.68936 -78.71977 37033 ft 412 kts 102°
2026-05-08 02:25 18.68253 -78.69062 36496 ft 408 kts 102°
2026-05-08 02:25 18.67573 -78.66165 35964 ft 405 kts 102°
2026-05-08 02:25 18.66900 -78.63292 35431 ft 403 kts 102°
2026-05-08 02:26 18.66225 -78.60423 34899 ft 401 kts 102°
2026-05-08 02:26 18.65554 -78.57570 34373 ft 400 kts 102°
2026-05-08 02:26 18.64887 -78.54734 33823 ft 398 kts 102°
2026-05-08 02:26 18.64220 -78.51906 33280 ft 395 kts 102°
2026-05-08 02:27 18.63562 -78.49108 32769 ft 392 kts 102°
2026-05-08 02:27 18.62905 -78.46326 32253 ft 390 kts 102°
2026-05-08 02:27 18.62251 -78.43553 31735 ft 387 kts 102°
2026-05-08 02:27 18.61604 -78.40809 31228 ft 385 kts 102°
2026-05-08 02:28 18.60956 -78.38075 30722 ft 384 kts 102°
2026-05-08 02:28 18.60313 -78.35347 30217 ft 382 kts 102°
2026-05-08 02:28 18.59670 -78.32637 29672 ft 380 kts 102°
2026-05-08 02:28 18.59034 -78.29949 29168 ft 376 kts 102°
2026-05-08 02:29 18.58404 -78.27289 28681 ft 373 kts 102°
2026-05-08 02:29 18.57776 -78.24646 28184 ft 370 kts 102°
2026-05-08 02:29 18.57158 -78.22030 27700 ft 367 kts 101°
2026-05-08 02:29 18.56540 -78.19435 27221 ft 364 kts 101°
2026-05-08 02:30 18.55929 -78.16857 26739 ft 362 kts 101°
2026-05-08 02:30 18.55318 -78.14293 26261 ft 360 kts 101°
2026-05-08 02:30 18.54713 -78.11746 25784 ft 358 kts 101°
2026-05-08 02:30 18.54109 -78.09207 25309 ft 356 kts 101°
2026-05-08 02:31 18.53505 -78.06676 24837 ft 354 kts 101°
2026-05-08 02:31 18.52908 -78.04161 24369 ft 353 kts 101°
2026-05-08 02:31 18.52308 -78.01655 23900 ft 352 kts 100°
2026-05-08 02:31 18.51714 -77.99158 23407 ft 350 kts 100°
2026-05-08 02:32 18.51121 -77.96683 22925 ft 347 kts 101°
2026-05-08 02:32 18.50537 -77.94232 22467 ft 343 kts 101°
2026-05-08 02:32 18.49835 -77.91837 22014 ft 344 kts 112°
2026-05-08 02:32 18.48700 -77.89613 21565 ft 342 kts 114°
2026-05-08 02:33 18.47619 -77.87389 21115 ft 340 kts 114°
2026-05-08 02:33 18.46553 -77.85210 20675 ft 338 kts 114°
2026-05-08 02:33 18.45468 -77.83020 20234 ft 337 kts 115°
2026-05-08 02:33 18.44384 -77.80830 19789 ft 335 kts 115°
2026-05-08 02:34 18.43306 -77.78655 19352 ft 334 kts 115°
2026-05-08 02:34 18.42239 -77.76488 18916 ft 333 kts 115°
2026-05-08 02:34 18.41908 -77.75817 18782 ft 333 kts 115°